Regional Weather Roundup
Issued by NWS

Home | Current Version | Previous Version | Graphics & Text | Print | Product List | Glossary On
Versions: 1 2 3 4 5 6 7 8 9 10 11 12 13 14 15 16 17 18 19 20 21 22 23 24 25 26 27 28 29 30 31 32 33 34 35 36 37 38 39 40 41 42 43 44 45 46 47 48 49 50
000
ASUS45 KCYS 161610
RWRWY

WYOMING REGIONAL WEATHER ROUNDUP
NATIONAL WEATHER SERVICE CHEYENNE WY
1000 AM MDT TUE SEP 16 2014

NOTE:  "FAIR" INDICATES FEW OR NO CLOUDS BELOW 12,000 FEET
WITH NO SIGNIFICANT WEATHER AND/OR OBSTRUCTIONS TO VISIBILITY.

WYZ001-161700-
YELLOWSTONE NATIONAL PARK

CITY           SKY/WX    TMP DP  RH WIND       PRES   REMARKS
LK YELLOWSTONE   N/A     50  41  71 CALM      30.35F
W YELLOWSTONE  NOT AVBL

$$
WYZ002>013-054>058-071-098>099-161700-
NORTHERN WYOMING

CITY           SKY/WX    TMP DP  RH WIND       PRES   REMARKS
JACKSON        SUNNY     50  34  53 CALM      30.30F
CODY           MOSUNNY   64  43  45 CALM      30.12S
GREYBULL       SUNNY     60  45  57 CALM      30.10S
WORLAND        MOSUNNY   57  46  66 SW5       30.10S
SHERIDAN       SUNNY     68  43  40 CALM      30.05F
BUFFALO        SUNNY     72  41  32 N6        30.11S
GILLETTE       SUNNY     70  45  40 SW9       30.08S
HULETT         FAIR      64  46  52 MISG      30.09
NEWCASTLE      FAIR      63  43  48 CALM      30.10

$$
WYZ014>020-022>026-101>103-161700-
CENTRAL WYOMING

CITY           SKY/WX    TMP DP  RH WIND       PRES   REMARKS
BIG PINEY      MOSUNNY   56  30  37 VRB5      30.33S
PINEDALE       SUNNY     55  30  38 CALM      30.34S
DUBOIS         FAIR      59  32  36 CALM      30.28S
LANDER         SUNNY     64  38  38 E3        30.19S
RIVERTON       MOSUNNY   62  40  44 E6        30.20S
CASPER         MOSUNNY   70  38  31 SW13      30.18S
DOUGLAS        SUNNY     69  44  40 N5        30.16F

$$
WYZ021-027>030-104>119-161700-
SOUTHERN WYOMING

CITY           SKY/WX    TMP DP  RH WIND       PRES   REMARKS
EVANSTON       MOSUNNY   67  35  30 SW6       30.31S
KEMMERER       PTSUNNY   61  34  36 N6        30.33S
FORT BRIDGER   CLOUDY    59  35  40 CALM      30.34S
ROCK SPRINGS   SUNNY     63  34  33 CALM      30.30S
DIXON          FAIR      64  42  44 CALM      30.33S
RAWLINS        SUNNY     69  31  24 SW10      30.30S
SARATOGA       FAIR      64  39  39 SE9       30.33S
LARAMIE        SUNNY     68  34  28 NW12      30.30S
CHEYENNE       SUNNY     74  34  23 NW13G22   30.22S
TORRINGTON     SUNNY     64  50  60 W8        30.10S
PINE BLUFFS    FAIR      73  36  25 NW17      30.16R

$$



USA.gov is the U.S. government's official web portal to all federal, state and local government web resources and services.